Location: Bühlhof
(48.7849°N, 8.6361°E)
Time: 07:21:29
(UTC+00:00)

SKYMED 2 - Pass Details

Date: 19 January 2026
Orbit: 622 x 624 km, 97.9° (Epoch: 18 February)

Event Time Altitude Azimuth Distance (km) Brightness Sun altitude
Exits shadow 17:24:37 - 17° (NNE) 2,680 6.5 -13.2°
Reaches altitude 10° 17:26:16 10° 20° (NNE) 2,004 5.8 -13.5°
Maximum altitude 17:30:35 62° 101° (E) 703 3.5 -14.2°
Drops below altitude 10° 17:34:53 10° 183° (S) 1,987 6.4 -14.8°
Sets 17:37:04 0° 187° (S) 2,888 7.3 -15.2°
